This demonstration page uses our WeatherBlox Daily Observations layout. Learn more.

Left ArrowRight Arrow

39.01783, -85.05884

Hourly Observations for March 9, 2020

Temp ( °F °C ) Dew Point ( °F °C ) Humidity (%) Winds ( mph kmh ) Pressure ( in mb ) Visibility ( mi km ) Precip ( " mm )
12:52 am 00:52 Mostly Clear 49 9.4 26 -3.3 41 41 SSW 8 13 30.32 1027 10 16 0.00 0.00
1:52 am 01:52 Mostly Clear 48 8.9 26 -3.3 42 42 S 9 15 30.32 1027 10 16 0.00 0.00
2:52 am 02:52 Mostly Clear 50 10 26 -3.3 39 39 SSW 10 17 30.32 1027 10 16 0.00 0.00
3:52 am 03:52 Partly Cloudy 49 9.4 26 -3.3 41 41 SSW 9 15 30.32 1027 10 16 0.00 0.00
4:52 am 04:52 Partly Cloudy 45 7.2 27 -2.8 49 49 S 10 17 30.32 1027 10 16 0.00 0.00
5:52 am 05:52 Mostly Cloudy 46 7.8 27 -2.8 47 47 S 12 19 30.32 1027 10 16 0.00 0.00
6:52 am 06:52 Mostly Cloudy 48 8.9 27 -2.8 44 44 S 13 20 30.33 1027 10 16 0.00 0.00
7:52 am 07:52 Mostly Cloudy 48 8.9 28 -2.2 46 46 S 10 17 30.34 1027 10 16 0.00 0.00
8:52 am 08:52 Cloudy 48 8.9 29 -1.7 48 48 S 12 19 30.35 1028 10 16 0.00 0.00
9:52 am 09:52 Cloudy 52 11.1 29 -1.7 41 41 SSW 12 19 30.35 1028 10 16 0.00 0.00
10:52 am 10:52 Mostly Cloudy 57 13.9 31 -0.6 37 37 SSW 8 13 30.35 1028 10 16 0.00 0.00
11:52 am 11:52 Cloudy 58 14.4 33 0.6 39 39 S 15 24 30.35 1028 10 16 0.00 0.00
12:52 pm 12:52 Cloudy 61 16.1 34 1.1 36 36 SSW 10 17 30.33 1027 10 16 0.00 0.00
1:52 pm 13:52 Cloudy 63 17.2 36 2.2 37 37 SW 16 26 30.29 1026 10 16 0.00 0.00
2:52 pm 14:52 Cloudy 65 18.3 37 2.8 36 36 SSW 13 20 30.25 1024 10 16 0.00 0.00
3:52 pm 15:52 Cloudy 66 18.9 33 0.6 29 29 SSW 16 26 30.22 1023 10 16 0.00 0.00
4:52 pm 16:52 Cloudy 63 17.2 34 1.1 34 34 SSW 13 20 30.22 1023 10 16 0.00 0.00
5:52 pm 17:52 Cloudy 63 17.2 39 3.9 41 41 SSW 12 19 30.20 1023 10 16 0.00 0.00
6:52 pm 18:52 Cloudy 62 16.7 41 5 46 46 S 16 26 30.19 1022 10 16 0.00 0.00
7:52 pm 19:52 Cloudy 61 16.1 41 5 48 48 S 17 28 30.19 1022 10 16 0.00 0.00
8:52 pm 20:52 Cloudy 61 16.1 41 5 48 48 S 18 30 30.16 1021 10 16 0.00 0.00
9:52 pm 21:52 Cloudy 60 15.6 42 5.6 52 52 S 16 26 30.15 1021 10 16 0.00 0.00
10:52 pm 22:52 Cloudy with Light Rain 58 14.4 45 7.2 62 62 S 14 22 30.14 1021 9 14 0.00 0.00
11:52 pm 23:52 Cloudy 59 15 47 8.3 64 64 S 16 26 30.11 1020 10 16 0.00 0.00

Powered by AerisWeather